Wind_Speed
24 25 26 29 30 29 28 26 23 21 18 17 17 16 16 16 16 16 16 16 17 17 17 17 17 18 18 18 19 19 20 21 21 21 21 21 21 21
23 24 27 29 31 32 31 30 28 25 22 20 19 18 17 17 17 18 18 18 18 18 19 19 19 18 18 18 19 19 20 21 21 22 22 22 22 22
22 24 26 29 30 32 32 32 31 29 26 24 22 21 19 18 18 17 18 18 19 19 19 20 19 19 19 19 20 20 21 22 22 23 23 23 23 23
20 21 22 26 29 31 32 32 32 31 29 27 25 24 23 22 21 20 19 19 19 19 19 20 20 20 20 20 21 21 22 22 22 23 23 24 24 24
20 19 20 23 26 30 31 32 33 33 31 29 28 27 25 25 24 23 22 21 20 20 21 21 21 22 22 22 22 22 23 23 23 23 24 24 25 25
21 21 21 22 24 26 28 30 32 33 32 31 29 28 28 27 27 28 26 24 23 23 23 24 24 24 24 24 24 24 24 24 24 24 24 24 25 25
23 23 22 21 23 24 26 28 30 31 31 31 30 30 30 30 29 30 29 28 26 26 26 25 25 26 26 25 25 25 24 24 25 24 24 24 24 24
23 23 23 22 23 24 25 26 28 30 31 31 31 31 30 31 30 29 29 29 29 29 29 28 27 27 27 27 26 25 25 25 25 25 25 24 24 23
23 23 23 23 22 23 24 25 26 28 30 31 31 31 31 30 31 30 30 30 31 31 31 31 30 29 29 28 27 27 26 26 26 25 25 25 24 24
24 24 24 23 23 22 23 25 25 26 27 28 30 31 31 31 31 31 31 31 30 31 33 33 32 30 30 29 28 27 27 27 26 26 26 25 25 24
25 24 24 24 24 24 23 24 24 25 26 27 28 30 32 32 32 32 32 32 30 31 34 33 32 31 30 30 29 28 28 27 27 26 26 26 25 25
26 26 25 25 24 24 24 23 24 25 25 25 26 28 30 31 32 32 32 33 32 32 33 33 32 32 30 31 31 29 28 27 26 26 26 26 26 26
27 26 25 25 25 24 24 23 23 24 25 25 25 26 28 29 30 31 32 33 33 33 34 34 32 33 32 32 32 31 29 28 27 27 26 26 26 26
26 25 25 24 24 23 23 23 23 23 24 24 25 25 26 27 28 30 31 33 35 35 35 35 34 35 35 34 34 33 32 31 29 29 28 28 28 28
25 24 23 23 23 22 22 22 22 23 23 23 24 25 26 26 27 28 29 31 32 34 35 36 36 37 37 36 36 35 34 33 32 31 31 30 30 30
25 24 23 22 21 21 21 21 21 22 22 21 22 23 23 24 26 26 27 28 31 33 34 35 37 38 39 39 38 37 36 36 35 34 34 34 34 33
23 22 22 22 22 21 21 21 21 21 21 21 21 21 22 22 23 24 26 27 29 31 34 36 38 39 39 40 40 39 39 39 39 38 37 36 36 36
19 19 19 20 20 20 21 21 21 21 21 21 22 22 22 22 23 24 26 27 29 32 35 38 39 39 40 41 41 42 42 42 42 42 40 39 39 39
14 15 16 17 18 18 18 19 20 20 21 21 22 22 23 24 25 26 27 28 29 31 33 35 37 39 40 41 43 44 44 44 44 43 42 42 42 41
9 11 12 13 15 16 17 18 18 19 20 21 22 23 24 25 26 27 28 29 30 31 32 34 35 38 39 40 42 43 44 44 43 43 43 43 43 42
5 7 9 10 11 13 15 16 18 19 20 22 23 25 26 26 27 28 29 30 31 32 33 34 35 36 37 38 39 40 41 42 43 43 43 43 42 41
3 5 6 8 10 12 13 15 17 19 20 22 24 25 26 27 28 29 30 31 32 33 34 35 35 36 37 37 37 38 39 41 41 42 42 42 42 41
3 4 5 7 9 11 12 14 16 17 19 21 23 24 25 27 28 29 30 31 32 33 34 35 35 36 36 36 36 37 37 37 37 38 39 40 41 41
Wind_Direction
260 251 245 241 234 230 229 228 228 230 234 239 244 245 245 244 244 246 246 247 249 249 249 250 251 251 252 253 254 255 254 254 254 255 257 259 262 264
255 254 249 245 239 233 231 229 230 233 235 237 241 245 247 247 246 249 250 251 252 253 253 253 253 254 254 255 257 258 258 257 257 257 259 261 261 263
259 257 251 245 240 237 234 233 233 234 236 239 240 242 244 247 247 248 251 253 254 256 256 255 254 254 256 258 260 261 261 260 260 260 261 261 261 264
263 260 253 245 242 238 236 236 236 235 237 240 240 241 242 246 249 249 251 254 255 256 257 256 256 257 259 260 262 263 263 262 262 262 262 262 264 266
261 260 258 251 244 239 238 239 239 239 239 241 242 243 243 244 248 250 251 252 256 257 258 259 259 260 261 263 264 265 265 264 263 262 263 264 265 267
263 260 261 255 246 243 242 241 241 240 240 242 243 245 246 246 248 251 252 253 254 257 258 260 261 261 262 263 263 264 263 263 262 262 264 265 266 267
266 263 262 259 249 246 245 244 243 241 241 242 243 246 249 250 250 250 252 254 254 256 258 259 260 261 262 262 262 261 262 262 262 262 264 265 266 266
266 265 264 261 255 250 248 249 247 244 242 243 244 245 249 252 252 251 253 254 254 254 255 258 259 260 261 261 261 261 261 261 261 262 263 263 263 262
265 265 265 263 261 254 250 249 250 248 245 245 245 245 247 250 254 255 256 255 254 254 254 255 257 258 260 261 260 260 260 259 260 260 261 261 260 258
264 263 263 262 262 260 256 253 252 251 249 249 247 246 247 249 254 257 257 256 254 253 253 253 254 254 256 257 257 258 257 258 259 260 260 259 258 257
263 263 261 261 259 258 257 256 254 253 252 251 250 248 248 249 251 253 255 256 255 253 254 253 253 252 252 253 254 255 256 257 258 259 259 258 257 256
262 261 259 259 258 258 256 256 255 254 252 251 251 249 247 248 249 250 250 252 253 253 255 254 252 251 250 251 253 254 255 257 258 259 259 258 257 256
260 260 259 258 258 258 256 255 255 253 252 252 252 253 250 249 249 250 250 251 252 252 254 255 251 249 248 249 252 253 254 256 258 259 259 258 257 257
258 257 258 257 257 256 255 253 253 252 253 253 254 255 255 254 253 254 254 253 253 253 253 253 250 248 249 249 250 252 254 255 256 258 259 259 258 258
256 256 255 255 253 252 253 251 250 251 253 253 254 256 257 258 258 258 256 254 253 252 251 249 250 250 250 250 250 251 253 254 255 257 258 259 259 259
254 253 252 251 250 250 252 250 250 250 253 255 257 258 259 259 259 259 258 257 254 251 249 248 250 251 252 252 251 250 252 254 254 255 257 259 260 259
249 249 248 249 249 249 248 248 248 250 252 256 260 261 260 259 259 259 259 258 255 251 249 248 249 251 253 253 252 252 252 253 255 256 256 256 258 259
244 245 245 245 245 245 245 246 248 251 253 256 259 261 261 262 263 261 259 258 257 254 252 250 251 253 253 254 254 255 254 253 254 256 257 257 257 257
242 243 242 242 242 243 245 246 249 253 256 258 260 262 264 264 265 264 262 261 261 260 257 255 254 254 254 254 254 254 254 254 255 255 256 257 258 258
237 236 238 240 241 243 247 250 253 256 259 261 263 265 267 268 268 268 267 266 266 264 262 260 258 257 257 256 256 256 256 255 254 254 254 255 256 257
235 235 240 245 250 253 255 257 259 261 264 266 267 268 269 269 270 270 269 268 268 267 265 264 263 261 260 259 258 256 255 254 254 254 254 255 255 257
263 259 261 265 267 267 268 269 270 271 272 273 274 273 273 273 273 272 271 271 270 269 268 267 267 266 264 262 261 260 259 258 257 257 257 256 256 258
345 318 303 294 290 286 284 283 283 283 282 282 281 280 279 278 276 275 274 274 273 272 270 269 268 267 266 265 264 263 262 262 260 260 259 258 257 258
Height
5799 5801 5804 5808 5811 5815 5819 5822 5825 5828 5830 5832 5834 5836 5838 5839 5841 5843 5845 5847 5849 5850 5852 5853 5855 5856 5857 5859 5860 5861 5863 5864 5865 5867 5868 5868 5869 5869
5793 5795 5797 5801 5804 5808 5812 5816 5819 5822 5825 5828 5829 5831 5833 5835 5837 5839 5840 5842 5844 5846 5847 5849 5850 5851 5853 5854 5855 5856 5858 5859 5860 5861 5862 5863 5863 5864
5788 5789 5790 5793 5797 5801 5805 5809 5812 5816 5819 5822 5824 5826 5828 5830 5832 5834 5836 5837 5839 5841 5842 5844 5845 5847 5848 5849 5850 5851 5852 5853 5854 5855 5856 5857 5857 5858
5782 5783 5784 5787 5790 5794 5797 5801 5805 5809 5812 5815 5818 5820 5823 5825 5827 5829 5831 5832 5834 5836 5837 5839 5840 5842 5843 5844 5845 5846 5847 5848 5848 5849 5850 5851 5851 5852
5778 5778 5779 5781 5784 5787 5791 5794 5798 5801 5805 5808 5811 5814 5817 5819 5821 5823 5825 5827 5829 5830 5832 5833 5835 5836 5838 5839 5840 5840 5841 5842 5843 5844 5844 5845 5845 5845
5772 5774 5775 5776 5778 5780 5784 5787 5790 5794 5797 5801 5803 5806 5809 5812 5814 5816 5818 5821 5823 5824 5826 5827 5829 5830 5831 5832 5833 5834 5835 5836 5836 5837 5838 5838 5839 5839
5766 5768 5769 5770 5772 5774 5777 5780 5783 5786 5790 5793 5796 5798 5801 5804 5807 5809 5811 5814 5817 5818 5819 5821 5822 5823 5824 5825 5827 5828 5829 5829 5830 5831 5831 5832 5832 5833
5761 5762 5763 5765 5766 5768 5770 5773 5776 5779 5782 5785 5788 5791 5793 5795 5798 5801 5803 5806 5808 5810 5811 5813 5814 5816 5817 5818 5820 5821 5822 5822 5823 5824 5824 5825 5825 5826
5755 5756 5758 5759 5760 5761 5764 5766 5769 5771 5774 5777 5780 5783 5785 5787 5790 5793 5795 5797 5799 5801 5803 5805 5806 5808 5809 5810 5812 5813 5814 5815 5816 5817 5817 5818 5818 5819
5748 5750 5752 5753 5754 5756 5758 5760 5762 5764 5766 5769 5772 5775 5777 5779 5781 5783 5785 5787 5790 5792 5793 5796 5798 5800 5802 5802 5804 5805 5806 5807 5808 5809 5810 5810 5811 5811
5741 5743 5745 5746 5748 5750 5751 5753 5755 5757 5759 5761 5763 5766 5768 5771 5773 5775 5776 5778 5781 5783 5784 5787 5789 5791 5793 5794 5796 5797 5798 5799 5800 5801 5802 5803 5803 5804
5734 5736 5738 5739 5741 5743 5745 5746 5748 5749 5751 5753 5755 5757 5760 5762 5764 5766 5768 5769 5771 5774 5775 5778 5781 5783 5785 5786 5787 5789 5791 5791 5792 5793 5794 5794 5795 5796
5727 5729 5731 5732 5734 5736 5738 5740 5741 5743 5745 5746 5748 5750 5751 5753 5755 5757 5759 5761 5763 5765 5766 5768 5772 5774 5776 5778 5779 5780 5782 5783 5784 5785 5786 5786 5787 5787
5719 5722 5724 5725 5727 5729 5731 5733 5734 5736 5738 5739 5741 5742 5744 5745 5747 5748 5750 5752 5753 5755 5757 5759 5762 5764 5766 5769 5770 5771 5773 5775 5776 5777 5777 5778 5778 5779
5713 5715 5717 5719 5721 5723 5724 5726 5728 5729 5731 5732 5734 5735 5736 5737 5738 5739 5741 5742 5744 5745 5748 5750 5752 5754 5756 5759 5761 5762 5764 5765 5766 5767 5768 5769 5769 5770
5706 5708 5711 5713 5715 5717 5718 5720 5721 5723 5724 5725 5726 5727 5728 5729 5730 5731 5732 5733 5734 5736 5738 5740 5742 5743 5745 5748 5750 5753 5754 5755 5757 5758 5759 5759 5760 5760
5700 5702 5705 5707 5709 5711 5712 5714 5716 5717 5718 5719 5720 5720 5721 5721 5722 5723 5723 5724 5725 5727 5728 5730 5731 5732 5734 5736 5739 5741 5743 5744 5745 5746 5748 5749 5750 5750
5694 5697 5699 5701 5703 5705 5706 5708 5709 5711 5711 5712 5713 5714 5714 5714 5714 5715 5715 5716 5716 5717 5718 5719 5721 5722 5723 5725 5727 5728 5730 5732 5733 5734 5735 5737 5738 5739
5689 5691 5693 5696 5697 5699 5701 5702 5704 5704 5705 5706 5706 5706 5707 5707 5707 5707 5707 5707 5707 5707 5708 5709 5709 5710 5712 5714 5715 5715 5717 5718 5720 5722 5723 5724 5725 5727
5687 5688 5690 5691 5693 5695 5696 5697 5698 5699 5699 5699 5699 5699 5699 5699 5698 5698 5698 5698 5698 5698 5698 5698 5698 5699 5700 5701 5702 5703 5704 5705 5706 5708 5710 5711 5712 5714
5685 5686 5688 5689 5690 5691 5691 5692 5693 5693 5693 5693 5693 5692 5691 5691 5690 5690 5689 5688 5688 5688 5688 5687 5687 5687 5688 5689 5690 5691 5691 5692 5693 5695 5696 5697 5699 5700
5685 5685 5686 5686 5687 5687 5687 5687 5687 5687 5687 5686 5685 5684 5683 5682 5681 5680 5679 5678 5678 5677 5677 5676 5676 5676 5676 5677 5678 5678 5679 5680 5680 5682 5683 5685 5686 5688
5685 5685 5685 5684 5684 5683 5683 5683 5682 5681 5680 5679 5678 5676 5675 5673 5672 5671 5669 5668 5667 5666 5665 5664 5664 5664 5664 5665 5665 5666 5667 5668 5668 5669 5671 5672 5673 5675